[[{"header":{"parameterUnit":"m.s-1","parameterCategory":1,"la1":30.2991,"la2":30.254,"lo1":-89.0895,"lo2":-89.0444,"dy":0.0017,"dx":0.0017,"nx":28,"ny":28,"refTime":"2025-08-24T21:00:00:Z","depth":0,"parameterNumber":2,"parameterNumberName":"U-component_of_WINDS"},"data":[0,0,0,0,0,0,0,0,0,0,0,0,0,0,0,0,0,0,0,0,0,0,0,0,0,0,0,0,0,0,0,0,0,0,0,0,0,0,0,0,0,0,0,0,0,0,0,0,0,0,0,0,0,0,0,0,0,0,-1.0767,-1.0766,0,-1.0659,-1.0657,-1.0656,-1.0585,-1.0585,-1.0584,-1.0584,-1.0473,-1.047,-1.0468,0,0,0,0,0,0,0,0,0,0,0,0,0,-1.0914,-1.0912,-1.0767,-1.0766,-1.0764,-1.0659,-1.0657,-1.0656,-1.0585,-1.0585,-1.0584,-1.0584,-1.0474,-1.0471,-1.0468,0,0,0,0,0,0,0,0,0,0,0,0,0,-1.0832,-1.0911,-1.0767,-1.0716,-1.0711,-1.0659,-1.0657,-1.0655,-1.0585,-1.0585,-1.0584,-1.0583,-1.0475,-1.0471,-1.0467,-1.0457,0,0,-1.0456,-1.0454,0,0,0,0,0,0,0,0,-1.0837,-1.0827,-1.0725,-1.072,-1.0713,-1.0635,-1.0668,-1.0589,-1.0585,-1.0633,-1.0584,-1.0583,-1.0527,-1.0519,-1.05,-1.0452,-1.0447,-1.0455,-1.0453,-1.0451,-1.045,0,0,0,0,0,0,0,-1.0843,-1.0831,-1.0724,-1.0724,-1.0717,-1.0699,-1.0687,-1.0653,-1.0585,-1.0629,-1.0623,-1.0611,-1.0524,-1.0504,-1.0497,-1.0446,-1.0455,-1.0452,-1.045,-1.0448,-1.0385,-1.0386,0,0,0,0,0,0,-1.0856,-1.0836,-1.0727,-1.0721,-1.0775,-1.0697,-1.0683,-1.0661,-1.0585,-1.0573,-1.0612,-1.0609,-1.0511,-1.0502,-1.0493,-1.0476,-1.0451,-1.0448,-1.0446,-1.0385,-1.0385,-1.0386,0,0,0,0,0,0,-1.086,-1.0847,-1.0732,-1.0777,-1.0761,-1.0695,-1.067,-1.0659,-1.0639,-1.0573,-1.0561,-1.0604,-1.051,-1.0498,-1.0467,-1.0472,-1.0446,-1.0443,-1.0384,-1.0385,-1.0386,-1.0444,0,0,0,0,0,0,-1.0864,-1.0849,-1.0844,-1.0778,-1.0759,-1.0708,-1.0671,-1.0657,-1.0633,-1.0627,-1.0562,-1.0551,-1.0508,-1.0473,-1.0463,-1.0466,-1.044,-1.0383,-1.0384,-1.0385,-1.0441,-1.0447,-1.0451,0,0,0,0,0,-1.087,-1.0865,-1.0844,-1.0832,-1.0752,-1.0708,-1.0697,-1.0649,-1.0633,-1.0628,-1.0586,-1.0553,-1.0473,-1.047,-1.0459,-1.046,-1.0383,-1.0384,-1.0385,-1.0439,-1.0446,-1.0451,0,0,0,0,0,0,-1.0933,-1.0855,-1.0831,-1.0805,-1.0764,-1.0696,-1.0688,-1.0657,-1.0619,-1.0616,-1.0557,-1.0543,-1.0518,-1.0486,-1.0484,-1.0448,-1.0424,-1.0423,-1.0469,-1.0475,-1.048,-1.0487,-1.0436,0,0,0,0,0,-1.0945,-1.0915,-1.0849,-1.0831,-1.0812,-1.0754,-1.0733,-1.0699,-1.0654,-1.0636,-1.0592,-1.055,-1.0515,-1.0493,-1.0458,-1.0437,-1.0422,-1.0433,-1.0438,-1.0442,-1.0442,-1.0429,-1.0433,-1.0391,-1.0391,-1.0391,0,0,-1.0967,-1.092,-1.0905,-1.0843,-1.0807,-1.0779,-1.074,-1.0711,-1.0689,-1.0632,-1.0599,-1.0566,-1.0515,-1.0489,-1.0475,-1.0462,-1.045,-1.0444,-1.0448,-1.0445,-1.0431,-1.0435,-1.0438,-1.0391,-1.0391,-1.0391,0,0,-1.0992,-1.0954,-1.0936,-1.0901,-1.0847,-1.0809,-1.0805,-1.0742,-1.0718,-1.0684,-1.0641,-1.0615,-1.0557,-1.0522,-1.0497,-1.0512,-1.048,-1.0502,-1.0528,-1.0516,-1.0519,-1.0522,-1.0527,-1.0529,-1.0502,-1.0502,-1.0502,0,-1.1026,-1.0981,-1.093,-1.0904,-1.0878,-1.0826,-1.0807,-1.0776,-1.0714,-1.0697,-1.0683,-1.0609,-1.0571,-1.0537,-1.0541,-1.0522,-1.0516,-1.0508,-1.0523,-1.0525,-1.0527,-1.0531,-1.0533,-1.0505,-1.0505,-1.0504,-1.0504,0,-1.1026,-1.0995,-1.0987,-1.0928,-1.0902,-1.0879,-1.0826,-1.0805,-1.0774,-1.0738,-1.0705,-1.0658,-1.0612,-1.0602,-1.0572,-1.0564,-1.0557,-1.0534,-1.0509,-1.0534,-1.0537,-1.0538,-1.0509,-1.0508,-1.0507,-1.0507,0,0,-1.1086,-1.1001,-1.0999,-1.0972,-1.091,-1.0885,-1.0861,-1.0817,-1.08,-1.076,-1.0738,-1.0691,-1.0669,-1.0641,-1.0607,-1.0596,-1.0611,-1.0574,-1.0572,-1.0582,-1.0599,-1.0616,-1.0619,-1.059,-1.059,-1.059,-1.0603,0,-1.1102,-1.1055,-1.101,-1.098,-1.0951,-1.0902,-1.0881,-1.0841,-1.0807,-1.0778,-1.0741,-1.0708,-1.0682,-1.0665,-1.0653,-1.0612,-1.0613,-1.061,-1.0569,-1.0568,-1.0582,-1.062,-1.0638,-1.0652,-1.0604,-1.0604,-1.0604,0,-1.1113,-1.1075,-1.1042,-1.0984,-1.097,-1.0952,-1.0908,-1.0881,-1.0835,-1.0811,-1.0781,-1.0744,-1.0717,-1.0697,-1.0659,-1.0658,-1.0639,-1.0616,-1.0616,-1.0609,-1.0587,-1.0614,-1.0655,-1.0657,-1.0605,-1.0605,-1.0605,0,-1.116,-1.1101,-1.1073,-1.1052,-1.0983,-1.0972,-1.0943,-1.0896,-1.0873,-1.0835,-1.0819,-1.0778,-1.0756,-1.0726,-1.068,-1.0669,-1.0647,-1.0622,-1.0626,-1.0627,-1.0622,-1.0622,-1.066,-1.0612,-1.0612,-1.0612,-1.0612,0,-1.1181,-1.1163,-1.1093,-1.1077,-1.1055,-1.1004,-1.0984,-1.095,-1.091,-1.0886,-1.0842,-1.0821,-1.0762,-1.0734,-1.0698,-1.0672,-1.0662,-1.0642,-1.0632,-1.0645,-1.0648,-1.0631,-1.0628,-1.0612,-1.0612,-1.0612,-1.0612,0,-1.1229,-1.1182,-1.1149,-1.1087,-1.1071,-1.1058,-1.1005,-1.0987,-1.0951,-1.0922,-1.0912,-1.0855,-1.082,-1.0772,-1.0722,-1.0698,-1.0676,-1.0662,-1.0691,-1.0686,-1.0691,-1.0691,-1.0718,-1.0719,-1.0672,-1.0672,-1.0673,0,-1.1245,-1.123,-1.1167,-1.1148,-1.112,-1.109,-1.1066,-1.1016,-1.0992,-1.094,-1.0929,-1.089,-1.0856,-1.0802,-1.0757,-1.0719,-1.0702,-1.0715,-1.0696,-1.071,-1.0702,-1.0703,-1.0701,-1.0719,-1.0719,-1.072,-1.0721,0,-1.1279,-1.1257,-1.1224,-1.1183,-1.1156,-1.1121,-1.1085,-1.1072,-1.1014,-1.099,-1.0954,-1.0928,-1.0877,-1.0839,-1.0795,-1.0765,-1.0733,-1.0727,-1.0726,-1.0738,-1.0756,-1.0746,-1.0703,-1.0726,-1.0726,-1.0725,-1.0725,-1.0725,-1.1311,-1.1296,-1.1249,-1.1214,-1.1181,-1.1148,-1.1129,-1.1091,-1.1059,-1.1014,-1.0986,-1.0951,-1.0907,-1.0844,-1.0816,-1.0788,-1.0775,-1.0773,-1.0773,-1.0773,-1.0777,-1.0761,-1.078,-1.078,-1.0779,-1.0779,-1.0779,0,-1.1342,-1.131,-1.1278,-1.1229,-1.1202,-1.1175,-1.1133,-1.1112,-1.1082,-1.1043,-1.1011,-1.097,-1.0933,-1.0886,-1.0846,-1.0833,-1.0817,-1.0824,-1.0824,-1.0818,-1.0791,-1.0796,-1.0837,-1.0837,-1.0837,-1.0837,-1.0837,-1.0837,-1.1355,-1.1327,-1.13,-1.1256,-1.1224,-1.1189,-1.1167,-1.1137,-1.1106,-1.1062,-1.1031,-1.1001,-1.0958,-1.0916,-1.0881,-1.0868,-1.0855,-1.0867,-1.0849,-1.0825,-1.082,-1.0814,-1.0819,-1.0865,-1.0865,-1.0878,-1.0878,-1.0879]},{"header":{"parameterUnit":"m.s-1","parameterCategory":1,"la1":30.2991,"la2":30.254,"lo1":-89.0895,"lo2":-89.0444,"dy":0.0017,"dx":0.0017,"nx":28,"ny":28,"refTime":"2025-08-24T21:00:00:Z","depth":0,"parameterNumber":3,"parameterNumberName":"V-component_of_WINDS"},"data":[0,0,0,0,0,0,0,0,0,0,0,0,0,0,0,0,0,0,0,0,0,0,0,0,0,0,0,0,0,0,0,0,0,0,0,0,0,0,0,0,0,0,0,0,0,0,0,0,0,0,0,0,0,0,0,0,0,0,2.3416,2.3416,0,2.3476,2.3477,2.3478,2.3472,2.3471,2.347,2.347,2.3531,2.3534,2.3536,0,0,0,0,0,0,0,0,0,0,0,0,0,2.3296,2.3298,2.3416,2.3417,2.3417,2.3476,2.3477,2.3478,2.3472,2.3471,2.347,2.3469,2.3531,2.3534,2.3537,0,0,0,0,0,0,0,0,0,0,0,0,0,2.3351,2.3299,2.3416,2.3422,2.3423,2.3476,2.3477,2.3478,2.3473,2.3471,2.347,2.3469,2.353,2.3533,2.3537,2.3588,0,0,2.3549,2.355,0,0,0,0,0,0,0,0,2.3348,2.3356,2.342,2.3421,2.3423,2.3465,2.3457,2.3515,2.3473,2.3454,2.347,2.3468,2.3511,2.3516,2.353,2.3591,2.3594,2.3549,2.3551,2.3553,2.3554,0,0,0,0,0,0,0,2.3344,2.3353,2.344,2.3421,2.3423,2.3421,2.3428,2.3468,2.3489,2.3455,2.3455,2.3462,2.3511,2.3527,2.3532,2.3594,2.3549,2.3552,2.3554,2.3556,2.37,2.3701,0,0,0,0,0,0,2.3339,2.335,2.3438,2.3441,2.3381,2.3425,2.3432,2.3453,2.3489,2.3493,2.3463,2.3462,2.3521,2.3527,2.3534,2.3596,2.3553,2.3556,2.3558,2.3698,2.37,2.3702,0,0,0,0,0,0,2.3336,2.3347,2.3435,2.3396,2.3407,2.3428,2.3452,2.3455,2.347,2.3495,2.3499,2.3475,2.352,2.3528,2.3575,2.3598,2.3558,2.3561,2.3697,2.3699,2.3701,2.372,0,0,0,0,0,0,2.3333,2.3346,2.3366,2.3396,2.3409,2.3475,2.3454,2.3457,2.3477,2.3475,2.3507,2.3511,2.352,2.3569,2.3578,2.3602,2.3564,2.3695,2.3698,2.37,2.3718,2.3723,2.3728,0,0,0,0,0,2.3329,2.3369,2.3367,2.3377,2.3434,2.3477,2.3484,2.3493,2.3479,2.3499,2.3514,2.351,2.3594,2.3574,2.3584,2.361,2.3693,2.3697,2.37,2.3715,2.3722,2.3727,0,0,0,0,0,0,2.334,2.3373,2.3371,2.3422,2.3446,2.3476,2.3501,2.3499,2.3529,2.3526,2.3536,2.3543,2.3589,2.3604,2.3581,2.3661,2.3642,2.3647,2.365,2.3656,2.3661,2.3656,2.3567,0,0,0,0,0,2.3349,2.3381,2.3407,2.345,2.3462,2.3479,2.3498,2.3503,2.3529,2.3539,2.3558,2.3584,2.3616,2.3637,2.3667,2.372,2.3727,2.3742,2.3747,2.3751,2.3756,2.3785,2.3792,2.3714,2.3714,2.3714,0,0,2.3367,2.3388,2.3408,2.3453,2.3472,2.3505,2.3488,2.3524,2.3548,2.3545,2.3589,2.3604,2.3633,2.3683,2.3705,2.3696,2.378,2.3756,2.3759,2.3762,2.3789,2.3797,2.3804,2.3716,2.3716,2.3715,0,0,2.3416,2.3436,2.3473,2.3493,2.3523,2.3534,2.3543,2.3573,2.3582,2.3627,2.3625,2.3655,2.371,2.373,2.3748,2.3805,2.3802,2.3815,2.3841,2.3869,2.3875,2.3881,2.3901,2.3908,2.382,2.382,2.382,0,2.3435,2.3484,2.3493,2.3528,2.3548,2.3546,2.3584,2.3603,2.3642,2.3655,2.3645,2.3714,2.3733,2.3787,2.3801,2.3816,2.3826,2.3811,2.3873,2.3879,2.3884,2.3904,2.3912,2.3821,2.3821,2.3821,2.3821,0,2.3505,2.3539,2.3566,2.3603,2.3626,2.3662,2.3677,2.3698,2.3701,2.3714,2.3759,2.3783,2.3818,2.3831,2.3834,2.3886,2.388,2.3871,2.3852,2.3893,2.3912,2.3919,2.3823,2.3823,2.3822,2.3822,0,0,2.3564,2.3605,2.3615,2.3631,2.3664,2.3691,2.3727,2.3762,2.3781,2.3807,2.3838,2.3885,2.3877,2.3897,2.3903,2.3927,2.3971,2.3916,2.3916,2.3925,2.403,2.4036,2.4045,2.3969,2.3971,2.3972,2.4027,0,2.3617,2.3681,2.369,2.3747,2.3779,2.3778,2.381,2.3833,2.3846,2.3875,2.3888,2.3921,2.3908,2.3921,2.3945,2.3961,2.3992,2.3957,2.3998,2.4,2.3991,2.4054,2.4061,2.4112,2.4035,2.4036,2.4037,0,2.3687,2.3715,2.3776,2.3804,2.3818,2.3846,2.3878,2.3906,2.3933,2.394,2.3962,2.3965,2.4003,2.3982,2.4034,2.401,2.4028,2.4038,2.404,2.4045,2.4021,2.4061,2.4129,2.4137,2.4048,2.4047,2.4047,0,2.3724,2.3777,2.382,2.3834,2.3868,2.3888,2.3904,2.3929,2.3949,2.3978,2.3991,2.4023,2.4041,2.4066,2.4077,2.4061,2.4129,2.4109,2.4137,2.4136,2.4151,2.415,2.4224,2.4162,2.4162,2.4162,2.4162,0,2.3782,2.3819,2.3837,2.3863,2.3905,2.3914,2.3955,2.397,2.3992,2.4022,2.4023,2.405,2.4063,2.4093,2.4102,2.4144,2.4152,2.4159,2.4161,2.4159,2.4158,2.4171,2.4168,2.4164,2.4164,2.4163,2.4163,0,2.383,2.3844,2.3891,2.3919,2.3927,2.3956,2.398,2.4006,2.4018,2.4055,2.4065,2.4084,2.4119,2.4132,2.4175,2.4181,2.423,2.4229,2.4221,2.4221,2.4248,2.4245,2.4332,2.4344,2.4275,2.4275,2.4276,0,2.3867,2.3895,2.3926,2.3946,2.3961,2.3993,2.4014,2.4024,2.4046,2.4078,2.41,2.4135,2.4163,2.4219,2.4237,2.427,2.427,2.4298,2.4274,2.4272,2.427,2.4269,2.4272,2.4302,2.4303,2.4303,2.4304,0,2.393,2.3935,2.3964,2.3996,2.4021,2.4046,2.4071,2.4087,2.4102,2.4126,2.4161,2.4183,2.4227,2.4262,2.4295,2.4311,2.431,2.4311,2.4319,2.4318,2.4312,2.4316,2.4233,2.4309,2.4308,2.4308,2.4308,2.4308,2.3973,2.3998,2.4024,2.4057,2.4077,2.41,2.4126,2.4141,2.4171,2.4207,2.4211,2.4249,2.4275,2.432,2.4338,2.4368,2.4361,2.4372,2.4375,2.4378,2.438,2.4307,2.4374,2.4374,2.4374,2.4374,2.4374,0,2.4036,2.4053,2.4083,2.4118,2.4144,2.414,2.4167,2.4189,2.4223,2.4247,2.4275,2.4316,2.435,2.437,2.4404,2.4424,2.4425,2.4433,2.4432,2.4435,2.4385,2.4374,2.4432,2.4432,2.4432,2.4432,2.4432,2.4432,2.4072,2.4115,2.4123,2.4175,2.4191,2.4229,2.4245,2.4266,2.4286,2.4331,2.4359,2.4372,2.4395,2.443,2.4461,2.4466,2.4479,2.4488,2.4492,2.4445,2.4439,2.4433,2.4423,2.449,2.449,2.454,2.4541,2.4541]}]]